2000 PG5  

Epoch 2000 Aug. 24.0 TT = JDT 2451780.5                 Nakano

M   7.02100              (2000.0)            P               Q

n   0.32673875     Peri.  358.22196     +0.61901068     +0.78114554

a   2.0877041      Node   310.01213     -0.71925521     +0.52217081

e   0.4550458      Incl.    6.10616     -0.31543258     +0.34227078

P   3.02           H   20.3           G   0.15           U   *

Residuals in seconds of arc 

000802 704  0.2+  0.5-    000804 422  0.1+  0.4-    000819 046  0.6-  0.2-  

000802 704  0.5-  0.3-    000804 422  0.1+  0.4-    000819 046  0.6-  0.4-  

000802 704  0.1+  1.4-    000804 422  0.2+  0.4-    000819 046  0.9-  0.4-  

000802 704  0.4-  0.2-    000805 670  0.3+  0.8+    000819 046  0.8-  0.0   

000802 704  0.4-  0.6-    000805 711  0.5+  0.2+    000819 118  1.1-  0.1-  

000803 808 (4.7-  6.5-)   000805 711  0.4+  0.1+    000819 118  0.6-  0.1+  

000803 808 (4.0-  5.5-)   000805 711  0.6+  0.2+    000819 118  0.7-  0.2-  

000803 739 (2.4+  0.7-)   000805 670  0.5+  0.7+    000820 860  0.1+  0.2-  

000803 739  0.1+  0.3+    000805 670  0.3+  0.1-    000820 860  1.1-  0.2+  

000803 739  0.5-  0.5+    000805 402  0.2+  0.6-    000820 860  0.2-  0.4+  

000803 808 (1.9-  4.4-)   000805 402  0.5+  0.3+    000820 860  0.1+  0.1-  

000803 711  0.1-  0.2+    000805 402  0.6+  0.3-    000820 118  0.5-  0.3-  

000803 711  0.1+  0.0     000805 402  0.4+  0.4-    000820 118  0.4-  0.4-  

000803 711  0.1-  0.0     000806 739  0.6+  1.1-    000820 118  0.5-  0.3-  

000803 704  0.1-  0.4+    000806 739  0.3+  0.5+    000821 699  0.4+  1.1+  

000803 704  0.0   0.3+    000806 739  1.5+  1.1+    000821 699  0.9+  0.5-  

000803 704  0.3-  0.2+    000806 670  0.3-  0.3+    000821 699  1.3+  0.9+  

000803 704  0.1-  0.1+    000806 670  0.1-  0.3+    000821 699  1.3+  0.1+  

000803 704  0.3-  0.2+    000806 474  0.3-  0.0     000822 860  0.4-  0.5-  

000803 704  0.5-  0.2-    000806 474  0.4-  0.1+    000822 860  0.6+  1.1-  

000803 854  0.2-  0.2+    000806 474  0.3-  0.1-    000823 163  0.6-  0.2+  

000803 854  0.8+  0.0     000806 670  0.1-  0.6-    000823 163  0.6-  0.3+  

000803 704  0.8-  0.5-    000806 474  0.1-  0.0     000824 658  0.3-  0.2+  

000803 704  0.1-  0.3+    000806 474  0.4-  0.0     000824 658  0.3+  0.2-  

000803 704  0.5+  0.3-    000806 474  0.4-  0.1-    000824 658  0.2-  0.1+  

000803 704  0.1+  0.8+    000806 557  0.6+  0.3+    000825 658  0.6+  0.0   

000803 422  0.3+  0.2-    000806 557  0.4+  0.7+    000825 658  0.6-  0.2-  

000803 422  0.0   0.2-    000806 557  0.3+  0.2+    000825 658  0.7+  0.3+  

000803 422  0.1+  0.0     000806 557  0.5+  0.2+    000825 587  0.6+  0.1+  

000803 474  1.0-  0.2-    000807 739  0.6-  1.4+    000825 587  0.3+  0.4+  

000803 474  0.7-  0.1+    000807 739  0.6-  1.1+    000826 360  0.3-  0.1-  

000803 474  0.5-  0.3-    000807 739  1.6+  0.8+    000826 360  0.1-  0.2-  

000803 474  0.8-  0.1+    000807 670  0.3-  0.1+    000826 360  0.1-  0.1+  

000804 711  0.5+  0.1-    000807 670  0.9+  0.3-    000827 163  0.7+  0.1+  

000804 711  0.8+  0.3-    000807 474  0.3-  0.0     000827 163  0.2-  0.1+  

000804 711  0.7+  0.0     000807 474  0.1-  0.1-    000828 049 (3.9-  3.6-) 

000804 704  0.1-  0.1+    000807 474  0.2+  0.6-    000828 049 (3.5-  2.6-) 

000804 704  0.2-  0.4-    000807 474  0.0   0.5-    000828 049 (4.0-  3.1-) 

000804 704  0.8-  0.4-    000807 474  0.3-  0.1+    000829 402  0.8+  0.0   

000804 704  0.3-  0.7+    000817 739  0.3-  1.0-    000829 402  0.2+  0.3-  

000804 704  0.2-  0.5-    000817 739  0.4+  0.5-    000829 402  0.9+  0.4+  

000804 704  0.1-  0.2+    000817 739  0.7+  1.0+                            

000804 704  0.4-  0.3-    000819 046  0.9-  0.1+                            

 

 

NAKANO

         **** Don't distribute anyone except personal use only ****

                (C) Copyright 2000 OAA/ComputingSection

write mail from CFAD0::NAKANO on 2000-08-31 04:13:08(JST).

 





2000 PG5  

Epoch 2000 Aug. 24.0 TT = JDT 2451780.5                 Nakano

M   7.01819              (2000.0)            P               Q

n   0.32659355     Peri.  358.22101     +0.61899071     +0.78115934

a   2.0883229      Node   310.01161     -0.71926865     +0.52214108

e   0.4551916      Incl.    6.10757     -0.31544115     +0.34228465

P   3.02           H   20.3           G   0.15           U   *

 

NAKANO

         **** Don't distribute anyone except personal use only ****

                (C) Copyright 2000 OAA/ComputingSection

write mail from CFAD0::NAKANO on 2000-08-28 05:19:23(JST).

 









–ß‚è‚Ü‚·B